Time,TemperatureF,DewpointF,PressureIn,WindDirection,WindDirectionDegrees,WindSpeedMPH,WindSpeedGustMPH,Humidity,HourlyPrecipIn,Conditions,Clouds,dailyrainin,SoftwareType,DateUTC
2013-03-07 18:24:00,46.6,38.0,29.71,West,276,17.2,18.0,72,0.00,,---,0.00,VWS V12.08,2013-03-07 23:24:00,
2013-03-07 18:25:00,35.4,35.4,30.06,North,10,6.5,7.3,100,6.39,,---,0.13,VWS V12.08,2013-03-07 23:25:00,
2013-03-07 18:30:00,35.5,27.5,30.22,North,359,5.6,17.0,72,0.01,,---,0.01,VWS V12.08,2013-03-07 23:30:00,
2013-03-07 18:35:00,35.3,35.3,30.06,NNW,342,3.4,11.7,100,6.39,,---,0.13,VWS V12.08,2013-03-07 23:35:00,
2013-03-07 18:40:00,40.2,35.9,30.60,North,353,5.0,16.1,84,0.00,,---,0.00,VWS V12.08,2013-03-07 23:40:00,
2013-03-07 18:45:00,34.8,34.8,30.06,NW,315,5.3,11.7,100,6.40,,---,0.14,VWS V12.08,2013-03-07 23:45:00,
2013-03-07 18:50:00,50.1,50.1,29.98,SSW,193,0.0,11.4,100,0.53,,---,0.21,VWS V12.08,2013-03-07 23:50:00,
2013-03-07 18:55:00,35.5,35.5,30.06,NNW,333,8.0,0.0,100,6.40,,---,0.14,VWS V12.08,2013-03-07 23:55:00,
2013-03-07 19:00:00,35.0,35.0,30.07,WNW,295,7.8,11.7,100,6.40,,---,0.14,VWS V12.08,2013-03-08 00:00:00,
2013-03-07 19:05:00,34.8,34.8,30.06,WNW,294,3.5,11.7,100,6.40,,---,0.14,VWS V12.08,2013-03-08 00:05:00,
2013-03-07 19:10:00,52.4,52.4,29.93,SSE,162,4.3,11.6,100,0.13,,---,0.13,VWS V12.08,2013-03-08 00:10:00,
2013-03-07 19:15:00,46.3,38.0,29.72,WSW,253,14.3,21.3,73,0.00,,---,0.00,VWS V12.08,2013-03-08 00:15:00,
2013-03-07 19:20:00,52.8,52.8,29.92,SSE,165,5.8,8.0,100,0.13,,---,0.13,VWS V12.08,2013-03-08 00:20:00,
2013-03-07 19:25:00,43.7,43.7,29.87,North,6,0.0,17.8,100,0.63,,---,0.63,VWS V12.08,2013-03-08 00:25:00,
2013-03-07 19:30:00,34.8,34.8,30.06,NW,321,0.0,12.1,100,6.41,,---,0.15,VWS V12.08,2013-03-08 00:30:00,
2013-03-07 19:35:00,35.4,35.4,30.06,North,356,7.6,12.1,100,6.41,,---,0.15,VWS V12.08,2013-03-08 00:35:00,
2013-03-07 19:40:00,35.4,35.4,30.06,NNW,343,5.7,12.1,100,6.42,,---,0.16,VWS V12.08,2013-03-08 00:40:00,
2013-03-07 19:45:00,35.1,35.1,30.06,NNW,339,0.0,0.0,100,6.42,,---,0.16,VWS V12.08,2013-03-08 00:45:00,
2013-03-07 19:50:00,34.9,34.9,30.06,NW,326,3.5,12.1,100,6.42,,---,0.16,VWS V12.08,2013-03-08 00:50:00,
2013-03-07 19:55:00,35.0,35.0,30.06,NW,314,4.3,12.1,100,6.42,,---,0.16,VWS V12.08,2013-03-08 00:55:00,
2013-03-07 20:00:00,35.1,35.1,30.06,NNW,338,6.8,12.1,100,6.42,,---,0.16,VWS V12.08,2013-03-08 01:00:00,
2013-03-07 20:05:00,46.6,38.0,29.71,West,276,17.2,18.0,72,0.00,,---,0.00,VWS V12.08,2013-03-08 01:05:00,
2013-03-07 20:10:00,35.1,35.1,30.06,NNW,339,0.0,12.1,100,6.42,,---,0.16,VWS V12.08,2013-03-08 01:10:00,
2013-03-07 20:15:00,30.1,25.8,29.83,West,266,20.9,38.0,84,2.30,,---,0.84,VWS V12.08,2013-03-08 01:15:00,
2013-03-07 20:20:00,43.0,38.3,29.75,SW,236,4.7,12.3,83,0.00,,---,0.00,VWS V12.08,2013-03-08 01:20:00,
2013-03-07 20:25:00,35.4,35.4,30.06,NNW,332,10.2,12.1,100,6.42,,---,0.16,VWS V12.08,2013-03-08 01:25:00,
2013-03-07 20:30:00,35.2,35.2,30.06,NW,322,5.5,12.1,100,6.42,,---,0.16,VWS V12.08,2013-03-08 01:30:00,
2013-03-07 20:35:00,35.2,35.2,30.06,NW,323,7.8,12.1,100,6.42,,---,0.16,VWS V12.08,2013-03-08 01:35:00,
2013-03-07 20:40:00,35.0,35.0,30.06,North,359,0.0,12.1,100,6.43,,---,0.17,VWS V12.08,2013-03-08 01:40:00,
2013-03-07 20:45:00,33.4,26.7,30.17,North,0,0.0,6.5,76,0.00,,---,0.00,VWS V12.08,2013-03-08 01:45:00,
2013-03-07 20:50:00,47.0,47.0,30.23,WNW,300,0.0,14.8,100,0.03,,---,0.00,VWS V12.08,2013-03-08 01:50:00,
2013-03-07 20:55:00,43.0,38.3,29.75,SW,236,4.7,12.3,83,0.00,,---,0.00,VWS V12.08,2013-03-08 01:55:00,
2013-03-07 21:00:00,34.8,34.8,30.06,NW,307,0.0,12.1,100,6.44,,---,0.18,VWS V12.08,2013-03-08 02:00:00,
2013-03-07 21:05:00,34.6,34.6,30.05,WNW,298,0.0,12.1,100,6.44,,---,0.18,VWS V12.08,2013-03-08 02:05:00,
2013-03-07 21:10:00,43.2,39.8,30.11,North,359,5.2,6.1,88,0.00,,---,0.00,VWS V12.08,2013-03-08 02:10:00,
2013-03-07 21:15:00,45.2,38.5,29.73,WNW,283,10.8,19.6,77,0.00,,---,0.00,VWS V12.08,2013-03-08 02:15:00,
2013-03-07 21:20:00,35.1,35.1,30.05,North,0,0.0,12.1,100,6.44,,---,0.18,VWS V12.08,2013-03-08 02:20:00,
2013-03-07 21:25:00,46.6,38.0,29.71,West,276,17.2,18.0,72,0.00,,---,0.00,VWS V12.08,2013-03-08 02:25:00,
2013-03-07 21:30:00,46.6,38.0,29.71,West,276,17.2,18.0,72,0.00,,---,0.00,VWS V12.08,2013-03-08 02:30:00,
2013-03-07 21:35:00,34.6,34.6,30.05,NW,311,3.1,12.1,100,6.45,,---,0.19,VWS V12.08,2013-03-08 02:35:00,
2013-03-07 21:40:00,35.2,35.2,30.05,North,359,0.0,0.0,100,6.45,,---,0.19,VWS V12.08,2013-03-08 02:40:00,
2013-03-07 21:45:00,34.6,34.6,30.05,North,359,0.0,12.1,100,6.45,,---,0.19,VWS V12.08,2013-03-08 02:45:00,
2013-03-07 21:50:00,34.5,34.5,30.05,NW,308,0.0,12.1,100,6.46,,---,0.20,VWS V12.08,2013-03-08 02:50:00,
2013-03-07 21:55:00,34.5,34.5,30.05,North,356,0.0,12.1,100,6.46,,---,0.20,VWS V12.08,2013-03-08 02:55:00,
2013-03-07 22:00:00,37.7,35.5,29.32,West,280,6.8,13.3,92,1.03,,---,1.03,VWS V12.08,2013-03-08 03:00:00,
2013-03-07 22:05:00,34.6,34.6,30.05,NW,316,4.3,12.1,100,6.46,,---,0.20,VWS V12.08,2013-03-08 03:05:00,
2013-03-07 22:10:00,34.9,34.9,30.05,NNW,347,0.0,12.1,100,6.46,,---,0.20,VWS V12.08,2013-03-08 03:10:00,
2013-03-07 22:15:00,34.6,34.6,30.05,WNW,288,0.0,12.1,100,6.46,,---,0.20,VWS V12.08,2013-03-08 03:15:00,
2013-03-07 22:20:00,28.2,22.4,30.17,SW,225,3.5,7.8,78,0.03,,---,0.03,VWS V12.08,2013-03-08 03:20:00,
2013-03-07 22:25:00,34.2,34.2,30.05,NW,305,0.0,12.1,100,6.46,,---,0.20,VWS V12.08,2013-03-08 03:25:00,
2013-03-07 22:30:00,42.1,42.1,29.99,NNW,346,0.0,12.0,100,0.25,,---,0.25,VWS V12.08,2013-03-08 03:30:00,
2013-03-07 22:35:00,34.4,34.4,30.04,NNW,330,3.3,12.1,100,6.46,,---,0.20,VWS V12.08,2013-03-08 03:35:00,
2013-03-07 22:40:00,34.1,34.1,30.05,NW,308,0.0,12.1,100,6.47,,---,0.21,VWS V12.08,2013-03-08 03:40:00,
2013-03-07 22:45:00,29.1,27.7,30.03,WNW,291,0.0,30.0,94,0.88,,---,0.00,VWS V12.08,2013-03-08 03:45:00,
2013-03-07 22:50:00,34.0,34.0,30.04,NW,308,0.0,12.1,100,6.47,,---,0.21,VWS V12.08,2013-03-08 03:50:00,
2013-03-07 22:55:00,34.1,34.1,30.04,WNW,295,0.0,12.1,100,6.47,,---,0.21,VWS V12.08,2013-03-08 03:55:00,
2013-03-07 23:00:00,33.8,33.8,30.04,North,350,1.8,0.0,100,6.47,,---,0.21,VWS V12.08,2013-03-08 04:00:00,
2013-03-07 23:05:00,34.0,34.0,30.04,NNW,328,0.0,0.0,100,6.48,,---,0.22,VWS V12.08,2013-03-08 04:05:00,
2013-03-07 23:10:00,33.4,33.4,30.04,NW,326,0.0,12.1,100,6.48,,---,0.22,VWS V12.08,2013-03-08 04:10:00,
2013-03-07 23:15:00,33.8,33.8,30.04,North,350,0.0,12.1,100,6.48,,---,0.22,VWS V12.08,2013-03-08 04:15:00,
2013-03-07 23:20:00,49.1,49.0,29.71,East,97,12.7,19.7,100,0.10,,---,0.10,VWS V12.08,2013-03-08 04:20:00,
2013-03-07 23:25:00,34.2,34.2,30.04,West,277,0.0,0.0,100,6.48,,---,0.22,VWS V12.08,2013-03-08 04:25:00,
2013-03-07 23:30:00,33.6,33.6,30.04,NW,312,4.7,0.0,100,6.48,,---,0.22,VWS V12.08,2013-03-08 04:30:00,
2013-03-07 23:35:00,34.0,34.0,30.04,WNW,302,7.5,12.1,100,6.49,,---,0.23,VWS V12.08,2013-03-08 04:35:00,
2013-03-07 23:40:00,34.0,34.0,30.04,West,278,0.0,12.1,100,6.49,,---,0.23,VWS V12.08,2013-03-08 04:40:00,
2013-03-07 23:45:00,33.9,33.9,30.04,West,270,2.8,12.1,100,6.49,,---,0.23,VWS V12.08,2013-03-08 04:45:00,
2013-03-07 23:50:00,28.5,22.4,30.16,WSW,250,3.4,30.4,78,0.03,,---,0.03,VWS V12.08,2013-03-08 04:50:00,
2013-03-07 23:55:00,49.9,49.9,30.08,SSW,207,6.3,11.3,100,0.03,,---,0.03,VWS V12.08,2013-03-08 04:55:00,